Helicity
62 51 47 46 39 40 49 44 31 67 60 51 46 53 48 44 38 38 24 18 14 4 23 24 26 16 26 21 40 98 72 60 29 21 22 26 29 31 41 36 30 44 40 42 41 44 48
72 71 59 51 50 43 53 55 47 45 83 46 42 48 50 49 38 37 24 11 10 11 14 44 41 13 20 33 75 80 55 23 25 26 23 25 31 26 38 35 46 33 30 35 33 37 46
70 66 74 67 55 54 52 75 57 45 59 71 35 45 44 56 43 39 34 10 8 17 11 20 10 8 28 41 44 68 31 31 33 33 34 38 31 33 45 51 32 53 55 42 44 47 48
75 62 67 80 68 65 54 58 73 65 38 63 47 41 45 60 54 49 43 17 14 19 14 12 -9 0 9 41 56 60 41 22 6 21 31 37 25 46 35 33 44 56 59 51 61 59 69
78 73 65 70 78 73 78 51 60 80 60 30 57 43 57 67 71 62 45 21 19 20 29 13 -11 3 6 24 49 86 38 24 13 16 25 30 44 47 34 60 66 58 79 66 28 81 56
75 80 71 65 69 69 71 74 42 63 74 62 59 51 60 80 83 43 10 40 76 -14 -12 2 -10 -3 -3 32 84 89 19 22 18 20 34 41 51 72 80 89 132 97 83 82 104 64 85
56 72 77 63 62 64 56 69 58 48 60 58 49 34 45 57 71 29 -27 -31 -15 -9 165 66 17 8 23 67 47 51 46 4 22 43 66 70 124 97 47 45 67 73 90 99 108 104 80
54 62 63 68 61 61 55 58 71 54 49 66 52 19 16 31 -15 5 16 6 -2 1 71 19 1 -7 31 52 9 88 31 41 34 50 17 70 94 45 35 52 66 76 93 71 70 84 117
45 51 64 58 62 63 57 53 53 67 52 59 53 30 22 28 9 18 34 33 13 -15 31 29 3 15 16 19 20 41 25 18 52 60 90 100 59 39 50 76 99 98 105 111 111 53 72
36 46 52 63 60 59 59 51 48 65 60 63 40 23 17 2 18 7 11 5 -11 -28 47 51 15 7 28 11 28 21 16 23 31 60 61 80 46 72 65 92 93 117 85 96 115 132 192
32 39 47 57 58 62 59 53 47 50 59 58 46 7 -12 11 28 11 1 -8 -16 -14 73 27 5 15 2 39 12 12 19 18 62 52 59 54 52 64 79 72 97 84 81 115 197 206 198
30 34 45 40 53 58 62 52 47 42 58 53 44 -18 -42 0 -1 9 -10 -15 -3 56 61 45 22 36 40 37 32 17 50 31 29 73 52 62 42 63 63 78 88 76 110 179 212 221 263
36 37 36 36 47 51 59 60 49 45 52 63 30 -46 -21 -8 17 9 6 11 67 83 41 46 48 59 60 52 55 65 65 109 87 103 91 56 69 70 79 101 103 79 130 214 263 295 269
35 43 35 39 51 46 56 69 59 51 50 64 23 -20 -19 -4 13 20 18 57 101 54 52 55 60 57 80 62 66 60 71 91 83 83 113 97 65 115 94 124 139 117 122 247 278 297 369
43 32 38 44 51 51 57 68 74 59 48 62 -1 -10 -5 7 23 12 54 86 61 56 55 56 63 113 83 72 67 83 90 96 83 63 110 115 64 78 86 108 115 153 173 153 267 351 473
30 30 46 53 47 51 61 66 75 70 60 40 9 0 -20 14 24 30 80 71 69 64 67 74 92 98 92 73 94 94 91 92 113 89 81 123 103 102 87 116 128 140 151 240 299 398 450
28 30 44 46 59 51 65 70 70 75 86 12 22 24 0 27 21 66 90 83 84 60 61 93 94 96 83 75 78 79 106 111 113 114 101 135 176 129 159 177 172 147 173 202 256 375 537
36 35 28 41 50 59 72 68 74 80 110 49 27 39 10 28 44 64 89 80 74 78 64 86 101 95 94 75 78 105 114 129 116 114 156 118 214 172 175 155 106 143 157 224 423 406 465
53 39 37 35 36 50 62 64 76 74 75 49 52 29 27 42 55 60 86 111 101 105 79 87 100 81 81 71 94 124 123 131 132 130 165 133 217 191 208 256 242 231 235 301 324 447 472
51 47 38 34 39 49 51 57 71 71 87 68 68 72 61 82 73 101 113 126 119 96 93 95 108 105 99 80 85 122 156 160 124 128 164 160 242 229 312 317 282 230 289 303 334 428 486
56 52 55 46 44 41 41 47 60 68 85 73 96 78 68 80 106 131 137 135 142 113 107 109 109 80 100 107 125 131 125 133 157 149 177 198 260 316 181 207 209 151 149 196 267 262 438
71 63 57 57 45 38 36 42 47 57 75 87 97 100 109 113 121 144 140 116 131 138 143 109 135 135 124 134 142 153 153 131 135 181 173 185 273 322 262 193 177 218 200 179 207 204 234
73 67 62 56 46 35 30 38 39 46 87 94 98 126 135 135 159 164 125 149 130 151 138 148 108 160 163 136 156 138 132 141 178 212 219 264 301 331 382 250 188 273 206 235 259 243 252
102 91 72 61 53 36 42 39 43 53 90 103 96 145 173 145 167 128 133 127 150 180 184 180 184 179 161 130 109 122 155 152 180 173 229 334 337 322 413 263 478 293 291 251 226 214 197
166 142 104 71 65 73 71 71 65 76 125 140 132 153 184 169 173 165 160 159 182 196 200 208 216 235 162 175 188 172 193 210 227 215 173 240 305 318 408 403 324 278 225 227 268 221 246
227 176 167 157 159 100 99 110 115 103 138 231 192 191 211 216 204 196 177 210 213 216 253 250 247 168 212 237 232 251 263 223 258 278 233 270 286 328 419 412 448 338 235 188 208 273 210
333 297 234 198 155 202 163 120 158 144 172 263 195 240 275 268 252 271 225 211 249 277 300 301 277 279 223 261 281 279 311 307 318 310 266 258 277 382 299 365 261 334 229 208 339 305 235
286 327 233 292 205 172 156 177 227 180 196 311 283 269 321 291 319 254 284 331 359 325 339 300 302 275 290 280 284 281 332 268 274 250 233 256 295 305 290 306 262 223 275 286 281 228 214
209 251 211 232 190 191 193 195 178 144 149 409 348 337 446 342 301 297 342 301 347 343 328 293 323 265 206 279 245 265 286 252 271 370 256 255 230 279 284 312 317 282 318 270 211 217 211
Wind_Speed
24 26 30 31 35 36 38 39 43 39 38 36 34 27 22 22 17 13 24 31 34 36 31 30 26 28 40 53 46 22 10 15 28 38 45 40 45 41 40 37 35 35 29 28 26 25 24
25 26 30 30 32 35 36 40 43 44 42 42 39 32 29 25 20 14 23 33 35 35 33 28 26 37 41 55 29 23 18 32 39 44 47 44 40 40 43 38 37 33 31 30 29 27 26
24 26 29 30 32 34 37 39 43 47 45 42 41 35 31 30 26 21 21 32 35 34 33 30 28 46 60 50 36 26 29 37 38 41 43 41 39 38 36 38 36 35 33 34 30 32 31
25 27 29 32 32 35 37 41 43 47 51 47 44 39 32 32 26 22 18 32 34 32 32 30 37 42 48 36 33 38 35 36 38 38 39 37 37 44 41 35 37 36 36 34 30 33 30
27 28 30 32 34 36 38 41 45 47 53 56 47 44 37 36 31 25 20 31 33 31 30 31 38 39 43 31 43 33 37 38 35 38 41 38 41 46 43 39 37 42 34 33 34 34 33
29 30 31 34 36 37 40 42 46 49 53 56 53 47 42 38 35 25 27 36 18 36 30 37 41 38 45 34 29 27 35 40 42 38 39 44 45 48 54 50 42 42 40 36 31 37 38
31 32 33 35 38 39 42 44 46 50 53 56 56 53 47 45 45 36 32 33 36 44 48 47 45 42 36 20 32 47 39 39 43 49 45 48 54 58 53 48 43 42 38 36 37 37 42
33 35 36 37 39 41 43 46 48 51 54 55 58 54 52 40 50 40 35 33 33 35 44 45 47 48 40 40 41 64 49 44 53 53 42 46 56 46 42 47 45 44 43 44 43 42 50
36 38 39 39 41 43 45 47 49 52 56 57 58 55 50 41 42 47 41 36 34 34 35 43 43 48 46 44 50 59 56 43 51 52 56 51 46 44 46 50 53 45 40 44 42 57 49
40 41 42 42 42 45 47 48 50 52 55 58 59 56 55 45 42 40 38 34 31 31 33 47 45 46 49 38 45 49 52 44 46 51 49 49 47 48 49 51 53 48 41 49 47 52 53
45 44 44 45 45 46 48 49 51 52 54 58 59 53 57 56 43 43 35 31 30 30 29 47 43 38 46 45 43 56 50 46 48 52 50 47 51 50 54 50 47 46 50 50 49 44 49
49 48 47 47 47 48 49 50 52 53 54 57 58 52 57 49 48 41 35 34 32 32 30 39 41 47 45 49 50 50 56 48 44 46 49 45 40 44 50 49 47 47 53 53 50 48 61
51 50 49 48 47 48 49 50 52 54 55 58 57 51 55 48 46 38 35 33 34 37 33 37 38 45 44 49 51 54 53 62 57 56 62 51 45 43 45 56 49 66 67 70 66 69 66
54 52 51 49 48 49 50 51 52 54 56 59 56 46 52 52 43 37 34 36 40 32 33 35 36 38 42 51 47 51 48 52 58 58 57 63 61 53 50 57 60 61 62 63 75 77 75
54 54 53 49 49 50 49 51 53 55 56 60 52 42 50 54 42 38 37 43 36 28 32 37 36 39 42 45 46 49 50 48 49 58 60 57 56 50 53 52 54 60 64 51 58 60 72
55 54 52 50 49 50 48 50 53 55 57 58 46 40 51 50 40 41 41 38 34 32 33 35 37 39 45 49 51 53 49 43 44 49 49 51 59 51 50 50 49 51 49 63 61 80 89
54 52 51 50 48 49 47 48 51 55 58 50 42 39 47 45 41 46 42 36 32 32 31 36 37 40 43 49 48 49 48 45 40 49 47 50 50 57 54 56 58 57 60 54 54 58 77
51 50 49 48 48 48 46 47 49 53 57 44 41 41 47 42 47 44 40 33 31 32 32 34 36 39 42 46 48 47 49 46 39 46 54 48 53 64 62 50 44 49 57 54 66 72 57
52 49 49 48 47 46 45 46 46 48 49 43 40 42 44 42 43 42 38 36 34 33 33 34 36 38 38 43 51 45 47 43 40 45 50 50 55 76 70 56 54 60 56 53 55 58 67
51 53 50 50 48 46 46 45 44 45 45 39 41 42 44 42 39 40 40 39 35 34 34 35 39 40 43 45 43 48 50 45 41 42 43 44 50 56 69 70 63 71 59 55 54 68 68
54 53 51 51 48 46 45 43 41 42 43 38 40 40 39 44 45 42 42 39 37 39 35 34 41 38 44 51 52 49 47 50 46 43 43 46 61 58 58 59 62 63 64 58 55 52 66
54 52 52 51 50 49 48 43 40 39 39 38 40 39 40 41 43 44 44 41 37 39 37 42 41 45 42 48 48 58 54 52 51 46 47 48 64 70 73 67 63 71 65 53 55 54 55
58 56 54 52 51 50 48 44 39 34 33 39 36 36 40 43 43 46 46 44 43 36 38 38 39 45 49 49 49 48 44 43 46 52 53 55 63 76 86 72 81 79 62 62 60 53 56
61 60 60 57 54 52 49 46 40 32 29 35 35 35 43 52 44 46 45 42 44 40 48 42 40 46 47 45 49 49 47 47 49 48 42 55 59 64 82 84 91 70 56 55 56 54 50
57 58 61 65 60 55 51 47 41 34 27 38 35 37 44 57 48 48 47 47 45 43 46 47 44 44 43 50 57 61 58 57 53 50 43 39 51 67 76 85 86 73 58 59 64 65 53
52 52 54 57 60 63 58 51 43 38 31 37 40 36 44 56 57 50 50 45 52 52 53 47 41 42 42 48 52 62 65 61 60 57 51 45 44 55 72 88 94 70 52 53 56 78 49
49 49 50 50 49 51 54 53 50 44 36 39 46 35 44 57 52 43 51 51 42 45 54 49 43 44 40 48 55 59 63 54 63 65 63 58 60 67 67 78 71 56 49 51 78 75 56
53 50 52 48 49 46 46 49 49 48 43 40 50 37 43 55 55 44 43 48 46 43 54 44 44 42 42 48 52 55 56 54 59 54 58 64 69 69 65 74 86 46 52 65 60 60 62
55 52 50 49 46 43 44 44 44 42 36 36 54 37 35 48 51 41 39 37 38 37 39 32 41 40 36 43 45 48 56 55 60 77 49 67 50 64 54 64 51 51 56 56 57 61 58
Wind_Direction
343 347 352 352 353 352 351 351 353 347 345 341 335 328 320 309 285 199 140 123 118 112 131 124 125 125 100 76 82 107 106 109 100 88 77 82 70 75 74 76 75 69 77 69 65 57 49
341 339 347 346 346 349 347 349 350 350 346 343 338 328 323 310 288 239 148 115 113 118 121 129 129 101 85 60 99 99 98 88 79 75 72 74 75 77 66 66 63 64 62 55 48 47 40
332 336 337 339 341 343 345 344 347 348 346 341 338 330 323 317 303 281 168 120 111 123 119 126 129 79 49 69 79 84 84 78 76 75 71 75 75 69 69 59 59 53 45 41 43 34 27
317 330 330 334 334 337 339 342 342 344 345 341 336 330 322 319 303 281 217 124 117 125 120 117 91 77 65 81 77 65 71 77 72 77 76 75 73 61 57 64 51 47 45 38 39 28 30
309 317 327 329 330 333 333 337 340 339 342 343 335 330 322 320 311 287 248 130 121 130 122 109 75 71 57 80 59 67 67 67 75 72 68 69 63 51 47 46 45 37 36 31 24 27 19
305 307 319 323 326 328 330 331 336 337 338 339 337 331 325 320 317 295 135 116 155 89 113 78 59 58 45 66 73 73 67 63 56 58 56 49 45 38 30 31 29 25 25 23 18 18 10
298 304 309 317 323 323 327 328 330 333 335 337 337 336 330 332 334 329 36 69 62 46 23 47 51 54 65 103 77 50 58 56 47 38 36 39 28 20 23 25 25 20 19 13 9 14 8
295 295 302 311 318 319 322 325 326 330 334 333 336 333 333 316 22 20 26 28 47 67 38 45 44 40 55 55 47 360 40 40 24 24 38 33 25 30 30 24 22 17 12 10 8 8 359
289 290 295 303 312 315 318 320 323 326 332 332 333 331 329 318 53 26 38 45 67 66 37 38 34 25 28 29 29 18 28 38 25 20 19 25 28 30 27 20 14 14 15 9 1 355 359
283 287 290 297 304 309 314 317 320 322 327 329 331 330 334 331 33 49 33 51 52 49 9 344 10 15 15 28 22 29 27 35 30 20 18 17 23 24 22 17 12 9 13 2 355 357 355
277 282 287 292 298 303 308 314 318 319 322 327 328 328 343 6 34 26 47 50 43 40 29 347 13 30 17 24 19 12 29 33 22 19 18 15 14 17 14 16 15 9 3 354 355 354 357
274 278 284 290 296 300 304 310 315 316 318 323 326 328 351 14 25 40 55 54 44 28 30 5 11 4 11 11 12 13 16 25 29 19 21 21 24 18 11 13 13 6 360 0 7 8 1
271 276 281 287 295 297 301 306 312 314 315 319 323 339 10 22 15 41 49 38 26 11 25 18 14 5 10 5 6 8 9 6 8 5 6 13 14 18 19 8 14 5 3 357 359 0 358
269 273 277 285 292 294 300 303 308 312 313 316 319 2 11 17 31 35 33 21 7 30 23 20 19 16 14 3 7 8 10 8 12 10 5 2 3 10 15 10 4 8 9 4 353 353 346
270 271 274 283 288 292 299 304 306 309 312 314 332 353 4 6 29 31 17 357 8 34 25 13 14 14 12 13 8 7 8 10 11 11 5 4 3 9 8 11 11 5 4 8 356 353 350
268 271 275 280 286 290 298 304 307 306 312 316 334 342 347 6 29 15 7 6 14 24 24 20 13 11 3 2 2 1 6 11 12 14 14 6 357 8 8 10 14 7 8 357 358 350 347
268 270 274 277 283 288 297 304 307 307 312 324 332 335 350 10 15 357 1 8 16 20 22 11 8 3 0 356 358 358 360 6 13 8 11 5 4 360 1 1 360 2 358 359 356 352 346
270 272 273 278 282 288 296 302 308 311 315 329 326 327 345 5 344 354 1 11 13 10 12 8 5 2 359 357 355 355 355 359 10 8 360 5 357 352 353 358 4 2 356 355 348 348 345
268 271 274 277 281 287 294 300 309 315 326 322 320 322 344 349 342 351 358 359 1 2 3 2 358 357 360 355 350 353 353 2 5 2 0 1 355 348 352 359 0 354 354 353 350 346 337
266 268 272 274 279 286 291 298 306 312 323 329 317 317 329 346 349 349 347 348 348 354 356 357 352 352 349 348 350 349 348 356 0 357 358 358 350 346 339 340 345 340 343 343 343 338 336
263 267 270 273 277 283 289 296 303 309 317 322 318 318 329 328 334 342 343 342 342 340 347 350 346 342 343 341 341 343 349 347 351 354 353 352 340 339 336 336 335 332 332 334 332 327 331
262 265 268 272 275 278 283 289 298 306 315 315 310 316 323 326 330 333 335 335 334 335 339 338 335 339 339 334 335 333 339 341 341 347 346 346 339 340 338 342 344 338 336 337 334 334 330
259 263 266 269 272 276 280 284 291 301 311 309 315 321 320 320 325 327 327 329 331 335 335 337 335 332 330 330 333 335 336 336 335 335 337 338 338 339 336 343 339 341 350 347 347 347 343
258 261 264 266 270 272 275 279 284 290 299 306 311 317 312 310 316 320 325 326 323 325 323 333 334 329 334 339 334 333 333 332 330 328 329 334 337 338 334 340 337 346 350 348 344 344 346
257 261 263 265 267 269 272 275 278 282 284 295 304 307 308 306 310 314 316 318 323 324 320 322 327 331 336 334 330 329 331 333 338 341 343 337 337 335 336 334 332 341 350 351 347 343 344
259 262 266 268 269 269 268 269 270 274 272 285 291 299 306 305 301 311 313 313 312 314 316 321 331 333 333 329 328 324 326 332 334 337 347 345 341 334 336 332 334 343 349 352 349 338 352
266 267 268 271 274 275 274 269 267 265 268 279 289 287 297 298 304 307 307 310 317 316 315 321 323 326 327 321 320 321 323 331 329 331 335 338 336 327 327 329 333 339 347 350 340 340 345
267 268 270 274 276 281 281 283 276 264 262 269 283 281 285 294 299 305 309 310 313 310 310 320 325 322 320 316 319 322 323 327 329 331 334 331 331 331 335 332 332 347 344 336 340 339 339
268 269 271 274 277 282 287 289 288 280 264 266 280 284 290 293 303 313 313 318 317 319 315 315 318 322 322 323 323 327 323 326 326 324 332 327 329 331 328 330 336 337 335 336 337 337 340